Weather History for Rickenbacker, OH

Change the Weather History Date:

Wednesday, April 2, 2014

  Actual Average Record
Temperature  
Mean Temperature 52 °F -  
Max Temperature 58 °F 59 °F 78 °F (2009)
Min Temperature 45 °F 38 °F 25 °F (2013)
Degree Days  
Heating Degree Days 14    
Growing Degree Days 2 (Base 50)    
Moisture  
Dew Point 41 °F    
Average Humidity 71    
Maximum Humidity 84    
Minimum Humidity 29    
Precipitation  
Precipitation 0.00 in - - ()
Sea Level Pressure  
Sea Level Pressure 30.10 in    
Wind  
Wind Speed 7 mph (NE)    
Max Wind Speed 21 mph    
Max Gust Speed 28 mph    
Visibility 10 miles    
Events Rain , Thunderstorm    
Averages and records for this station are not official NWS values.
T = Trace of Precipitation, MM = Missing Value Source: NWS Daily Summary

Daily Weather History Graph

Daily Weather History Graph

Search for Another Location

Airport:

Trip Planner

Search our weather history database for the weather conditions in past years. The results will help you decide how hot, cold, wet, or windy it might be!

Date:

Astronomy

Apr. 02, 2014 Rise Set
Actual Time 7:14 AM EDT 7:56 PM EDT
Civil Twilight 6:46 AM EDT 8:24 PM EDT
Nautical Twilight 6:14 AM EDT 8:56 PM EDT
Astronomical Twilight 5:41 AM EDT 9:29 PM EDT
Moon 8:58 AM EDT (4/2) 11:18 PM EDT (4/2)
Length of Visible Light 13h 37m
Length of Day
12h 42m
Waxing Crescent, 10% of the Moon is Illuminated
Apr 2
Waxing Crescent
Apr 7
First Quarter
Apr 15
Full
Apr 22
Last Quarter
Apr 29
New

Hourly Weather History & Observations

Time (EDT) Temp. Windchill Dew Point Humidity Pressure Visibility Wind Dir Wind Speed Gust Speed Precip Events Conditions
12:15 AM 58.5 °F - 25.9 °F 29% 30.05 in 10.0 mi NW 8.1 mph - N/A   Scattered Clouds
12:35 AM 57.7 °F - 26.4 °F 30% 30.05 in 10.0 mi NW 5.8 mph - N/A   Clear
12:55 AM 57.0 °F - 26.8 °F 31% 30.06 in 10.0 mi NW 10.4 mph - N/A   Scattered Clouds
1:15 AM 56.5 °F - 27.9 °F 33% 30.05 in 10.0 mi NNW 11.5 mph - N/A   Overcast
1:35 AM 56.1 °F - 28.6 °F 35% 30.07 in 10.0 mi NNW 9.2 mph - N/A   Overcast
1:55 AM 55.4 °F - 29.3 °F 37% 30.06 in 10.0 mi NNW 15.0 mph 23.0 mph N/A   Overcast
2:15 AM 54.3 °F - 30.6 °F 40% 30.05 in 10.0 mi NNW 20.7 mph 27.6 mph N/A   Light Drizzle
2:35 AM 52.5 °F - 33.8 °F 49% 30.04 in 10.0 mi NNW 12.7 mph 20.7 mph N/A Rain Light Rain
2:55 AM 51.1 °F - 35.8 °F 56% 30.04 in 10.0 mi North 13.8 mph - N/A Rain Light Rain
3:15 AM 50.4 °F - 36.5 °F 59% 30.05 in 10.0 mi North 9.2 mph - N/A Rain Light Rain
3:35 AM 50.2 °F - 37.2 °F 61% 30.03 in 10.0 mi North 10.4 mph - N/A Rain Light Rain
3:55 AM 49.5 °F - 38.3 °F 65% 30.07 in 7.0 mi NW 9.2 mph - N/A Rain Rain
4:15 AM 48.0 °F - 39.6 °F 73% 30.05 in 10.0 mi NNE 4.6 mph - N/A Rain Light Rain
4:35 AM 48.2 °F - 39.9 °F 73% 30.09 in 10.0 mi Calm Calm - N/A Rain Rain
4:55 AM 48.2 °F - 39.9 °F 73% 30.09 in 7.0 mi Calm Calm - N/A Rain , Thunderstorm Light Thunderstorms and Rain
5:15 AM 47.7 °F - 40.3 °F 76% 30.11 in 10.0 mi NNW 4.6 mph - N/A Rain Rain
5:35 AM 47.3 °F - 40.3 °F 77% 30.11 in 10.0 mi North 8.1 mph - N/A Rain Light Rain
5:55 AM 47.1 °F - 39.6 °F 75% 30.10 in 10.0 mi North 3.5 mph - N/A Rain Light Rain
6:15 AM 46.4 °F 45.2 °F 39.4 °F 77% 30.10 in 10.0 mi East 3.5 mph - N/A   Overcast
6:35 AM 45.9 °F 42.3 °F 39.7 °F 79% 30.13 in 10.0 mi North 6.9 mph - N/A   Overcast
6:55 AM 46.2 °F 43.3 °F 39.6 °F 78% 30.13 in 7.0 mi NNE 5.8 mph - N/A Rain Rain
7:15 AM 46.0 °F 44.8 °F 40.1 °F 80% 30.15 in 10.0 mi North 3.5 mph - N/A Rain Rain
8:35 AM 45.7 °F - 41.2 °F 84% 30.15 in 7.0 mi Calm Calm - N/A Rain Light Rain
8:55 AM 45.9 °F - 41.2 °F 84% 30.17 in 7.0 mi Calm Calm - N/A Rain Light Rain
9:15 AM 45.7 °F 44.4 °F 41.2 °F 84% 30.15 in 7.0 mi ESE 3.5 mph - N/A Rain Light Rain
9:35 AM 45.9 °F - 41.4 °F 84% 30.15 in 5.0 mi Calm Calm - N/A Rain Light Rain
9:55 AM 46.0 °F - 41.5 °F 84% 30.15 in 7.0 mi Calm Calm - N/A   Overcast
10:15 AM 46.4 °F 45.2 °F 41.5 °F 83% 30.15 in 7.0 mi East 3.5 mph - N/A Rain Light Rain
10:35 AM 46.8 °F - 42.1 °F 84% 30.16 in 7.0 mi NE 3.5 mph - N/A   Overcast
10:55 AM 47.3 °F - 42.1 °F 82% 30.17 in 10.0 mi Calm Calm - N/A Rain Light Rain
11:15 AM 47.3 °F - 41.7 °F 81% 30.18 in 10.0 mi Calm Calm - N/A Rain Light Rain
11:35 AM 47.3 °F - 41.9 °F 82% 30.17 in 10.0 mi ENE 3.5 mph - N/A Rain Light Rain
11:55 AM 47.3 °F - 42.3 °F 83% 30.15 in 10.0 mi ENE 4.6 mph - N/A   Overcast
12:35 PM 48.4 °F - 43.0 °F 82% 30.15 in 10.0 mi NE 4.6 mph - N/A   Overcast
12:55 PM 48.4 °F - 42.8 °F 81% 30.15 in 10.0 mi ENE 3.5 mph - N/A   Overcast
1:15 PM 48.6 °F - 42.8 °F 80% 30.15 in 10.0 mi NE 4.6 mph - N/A   Overcast
1:55 PM 50.9 °F - 44.4 °F 78% 30.13 in 10.0 mi East 4.6 mph - N/A   Overcast
2:15 PM 52.2 °F - 45.5 °F 78% 30.13 in 10.0 mi ENE 4.6 mph - N/A   Overcast
2:35 PM 53.6 °F - 45.5 °F 74% 30.13 in 10.0 mi Calm Calm - N/A   Overcast
2:55 PM 54.3 °F - 44.8 °F 70% 30.12 in 10.0 mi NNE 3.5 mph - N/A   Overcast
3:15 PM 55.6 °F - 45.3 °F 68% 30.11 in 10.0 mi NE 3.5 mph - N/A   Overcast
3:35 PM 57.0 °F - 45.0 °F 64% 30.11 in 10.0 mi ENE 4.6 mph - N/A   Scattered Clouds
3:55 PM 57.4 °F - 44.8 °F 63% 30.11 in 10.0 mi NNE 3.5 mph - N/A   Scattered Clouds
4:15 PM 57.2 °F - 44.6 °F 63% 30.10 in 10.0 mi ENE 4.6 mph - N/A   Clear
4:35 PM 57.2 °F - 44.6 °F 63% 30.11 in 10.0 mi NE 3.5 mph - N/A   Clear
4:55 PM 57.2 °F - 45.0 °F 64% 30.10 in 10.0 mi ENE 5.8 mph - N/A   Scattered Clouds
5:15 PM 57.0 °F - 45.3 °F 65% 30.08 in 10.0 mi NE 8.1 mph - N/A   Scattered Clouds
5:35 PM 56.5 °F - 44.8 °F 65% 30.09 in 10.0 mi NE 4.6 mph - N/A   Mostly Cloudy
5:55 PM 56.1 °F - 45.1 °F 67% 30.09 in 10.0 mi NE 5.8 mph - N/A Rain Light Rain
6:15 PM 55.2 °F - 46.0 °F 71% 30.08 in 10.0 mi NNE 8.1 mph - N/A   Light Drizzle
6:35 PM 55.0 °F - 45.3 °F 70% 30.09 in 10.0 mi NE 5.8 mph - N/A   Scattered Clouds
6:55 PM 54.7 °F - 45.3 °F 71% 30.10 in 10.0 mi NE 4.6 mph - N/A Rain Light Rain
7:15 PM 54.0 °F - 45.7 °F 74% 30.10 in 10.0 mi Calm Calm - N/A   Light Drizzle
7:35 PM 53.8 °F - 46.4 °F 76% 30.10 in 10.0 mi SE 4.6 mph - N/A Rain Light Rain
7:55 PM 53.4 °F - 46.6 °F 78% 30.09 in 10.0 mi ESE 3.5 mph - N/A Rain Light Rain
8:15 PM 52.5 °F - 47.1 °F 82% 30.07 in 10.0 mi ESE 5.8 mph - N/A Rain Rain
8:35 PM 52.2 °F - 47.3 °F 83% 30.06 in 10.0 mi ENE 6.9 mph - N/A   Overcast
8:55 PM 51.8 °F - 46.9 °F 83% 30.07 in 10.0 mi NE 5.8 mph - N/A Rain Rain
9:15 PM 51.4 °F - 46.8 °F 84% 30.07 in 10.0 mi NNE 10.4 mph - N/A   Light Drizzle
9:35 PM 51.8 °F - 46.8 °F 83% 30.06 in 10.0 mi NE 10.4 mph - N/A Rain Light Rain
9:55 PM 51.3 °F - 46.2 °F 83% 30.06 in 10.0 mi NE 10.4 mph - N/A Rain Light Rain
10:15 PM 51.3 °F - 45.9 °F 82% 30.07 in 10.0 mi ENE 5.8 mph - N/A   Mostly Cloudy
10:35 PM 50.5 °F - 45.1 °F 82% 30.07 in 10.0 mi ENE 5.8 mph - N/A   Mostly Cloudy
10:55 PM 50.4 °F - 44.8 °F 81% 30.07 in 10.0 mi East 5.8 mph - N/A   Overcast
11:15 PM 50.9 °F - 44.4 °F 78% 30.06 in 10.0 mi East 8.1 mph - N/A   Scattered Clouds
11:35 PM 50.2 °F - 43.7 °F 78% 30.06 in 10.0 mi East 4.6 mph - N/A   Scattered Clouds
11:55 PM 49.8 °F - 43.9 °F 80% 30.06 in 10.0 mi ENE 4.6 mph - N/A   Mostly Cloudy